AO-07 1 07530U 74089B 19318.54743747 -.00000043 00000-0 15339-4 0 9999 2 07530 101.7668 284.7911 0012509 60.0711 53.1770 12.53640806 59170 UO-11 1 14781U 84021B 19318.53384687 .00000056 00000-0 12995-4 0 9993 2 14781 97.6019 336.1399 0008378 180.8507 179.2694 14.83119933920825 LO-19 1 20442U 90005G 19317.91161511 -.00000001 00000-0 15779-4 0 9997 2 20442 98.6644 259.7571 0012861 73.9646 286.2953 14.32937789557601 HUBBLE 1 20580U 90037B 19318.41156654 .00000463 00000-0 17245-4 0 9994 2 20580 28.4702 308.4879 0002433 287.1209 206.6071 15.09298191423387 MET-2/21 1 22782U 93055A 19317.83920449 .00000039 00000-0 21930-4 0 9994 2 22782 82.5522 45.4985 0023513 121.4338 359.9348 13.83824022323358 AO-27 1 22825U 93061C 19318.59836682 -.00000018 00000-0 10915-4 0 9997 2 22825 98.9151 310.7206 0007422 288.0098 72.0274 14.30070986363230 IO-26 1 22826U 93061D 19318.56531561 -.00000006 00000-0 15445-4 0 9993 2 22826 98.9092 310.6596 0007901 275.0160 85.0119 14.30405394363433 FO-29 1 24278U 96046B 19318.17735951 -.00000034 00000-0 28058-5 0 9994 2 24278 98.5603 91.6063 0349851 214.9649 142.8061 13.53094809147888 NOAA-15 1 25338U 98030A 19318.59669222 .00000022 00000-0 27958-4 0 9993 2 25338 98.7374 339.5297 0010716 165.0407 195.1092 14.25939138118470 GO-32 1 25397U 98043D 19318.82554781 -.00000009 00000-0 15375-4 0 9997 2 25397 98.7033 257.2460 0001180 17.7192 342.4028 14.23674171109099 ISS 1 25544U 98067A 19318.93051462 .00000194 00000-0 11429-4 0 9997 2 25544 51.6466 333.8813 0006119 281.2134 149.2780 15.50002937198648 NO-44 1 26931U 01043C 19317.50856172 -.00000016 00000-0 25757-4 0 9992 2 26931 67.0517 342.2384 0007462 266.0065 94.0183 14.30558416946112 SO-50 1 27607U 02058C 19318.17522446 -.00000030 00000-0 16662-4 0 9999 2 27607 64.5547 315.6222 0072649 227.5217 131.9732 14.75588321908940 CO-55 1 27844U 03031E 19318.52144197 .00000047 00000-0 40692-4 0 9993 2 27844 98.6844 324.5137 0009212 325.7303 34.3279 14.22205175849444 CO-57 1 27848U 03031J 19318.48571801 .00000029 00000-0 33161-4 0 9991 2 27848 98.6919 325.0078 0009307 338.4549 21.6236 14.21796778849286 RS-22 1 27939U 03042A 19318.41896140 .00000113 00000-0 28893-4 0 9993 2 27939 98.0620 91.5278 0012024 321.6108 38.4256 14.66817301862347 NOAA-18 1 28654U 05018A 19318.60895119 .00000062 00000-0 58222-4 0 9991 2 28654 99.0774 7.6754 0015164 117.9169 242.3539 14.12466586746540 CO-58 1 28895U 05043F 19317.85292722 .00000130 00000-0 33749-4 0 9996 2 28895 97.9807 95.6989 0015698 241.8228 118.1390 14.63709991749154 Falconsat-3 1 30776U 07006E 19318.09986752 .00002648 00000-0 73317-4 0 9999 2 30776 35.4344 223.1511 0002516 349.3497 10.7176 15.36782287703524 CO-65 1 32785U 08021C 19318.53411766 .00000228 00000-0 30175-4 0 9993 2 32785 97.5578 311.2938 0014272 125.5667 234.6884 14.88373107625823 AAUSAT2 1 32788U 08021F 19318.52647835 .00000591 00000-0 59124-4 0 9991 2 32788 97.4939 327.6583 0013176 64.2812 295.9768 14.94855854627156 DO-64 1 32789U 08021G 19317.81198435 .00001605 00000-0 11040-3 0 9991 2 32789 97.4476 2.8933 0011475 345.4527 14.6369 15.07250052629273 CO-66 1 32791U 08021J 19317.89838389 .00000336 00000-0 39376-4 0 9994 2 32791 97.5320 316.7852 0014812 102.9691 257.3183 14.90908733626193 RS-30 1 32953U 08025A 19318.62021135 .00000020 00000-0 75656-4 0 9994 2 32953 82.5062 52.1392 0019901 162.3570 197.8204 12.43092179520818 PRISM 1 33493U 09002B 19318.47920502 .00001083 00000-0 99919-4 0 9997 2 33493 98.1257 245.0940 0016271 54.0154 306.2572 14.96800383587407 NOAA-19 1 33591U 09005A 19318.59879862 -.00000020 00000-0 14636-4 0 9998 2 33591 99.1901 313.3997 0013446 324.4897 35.5377 14.12383180554928 TISAT-1 1 36799U 10035E 19318.11512811 .00000471 00000-0 53520-4 0 9996 2 36799 98.1735 115.3770 0011448 324.1905 35.8544 14.91201296506886 JUGNU 1 37839U 11058B 19317.71811104 .00000294 00000-0 14897-4 0 9997 2 37839 19.9597 157.1176 0018958 158.8947 271.3221 14.12663925418216 SRMSAT 1 37841U 11058D 19318.20269425 .00000309 00000-0 24516-4 0 9994 2 37841 19.9707 214.0313 0011791 28.9510 95.4588 14.10643122417685 AO-71 1 37854U 11061E 19318.52477466 .00002293 00000-0 12317-3 0 9992 2 37854 101.7095 293.3115 0159864 343.7320 15.8794 15.06772260439401 HRBE 1 37855U 11061F 19318.13021260 .00002515 00000-0 13194-3 0 9998 2 37855 101.7216 289.9733 0172699 356.7217 3.2849 15.05772097439111 ALMASAT-1 1 38078U 12006B 19318.79880953 .00063283 53263-5 26140-3 0 9998 2 38078 69.4200 196.6415 0119043 27.3354 38.2291 15.75731539420864 HORYU-2 1 38340U 12025D 19317.86092610 .00000189 00000-0 35593-4 0 9998 2 38340 98.3126 0.7718 0011713 18.4406 341.7225 14.75773528403019 RS-40 1 38735U 12041C 19317.69852883 .00000028 00000-0 13085-3 0 9994 2 38735 82.4722 135.8239 0016248 274.3566 85.5658 12.42579819330931 BEESAT-3 1 39135U 13015F 19317.88393300 .00001106 00000-0 63521-4 0 9995 2 39135 064.8667 280.6198 0039884 284.1434 075.5262 15.17725884362345 BEESAT-2 1 39136U 13015G 19318.17530831 .00001130 00000-0 66115-4 0 9990 2 39136 64.8682 283.9370 0030233 289.0853 70.6999 15.17141035362690 ZACUBE-1 1 39417U 13066B 19318.53289772 .00000211 00000-0 32898-4 0 9993 2 39417 97.5618 323.6667 0057425 265.9016 93.5633 14.81177434323071 TRITON-1 1 39427U 13066M 19318.06003564 .00000216 00000-0 42098-4 0 9993 2 39427 97.6960 286.4207 0114937 50.9066 310.2295 14.67904578320103 GOMX-1 1 39430U 13066Q 19318.62160187 .00000147 00000-0 35330-4 0 9998 2 39430 97.7644 265.4997 0151662 144.2234 216.9250 14.59307469318321 LO-74 1 39440U 13066AA 19318.22772003 .00000219 00000-0 37537-4 0 9992 2 39440 97.6121 307.9700 0079350 323.3417 36.2380 14.75915556321883 AO-73 1 39444U 13066AE 19318.51827097 .00000247 00000-0 36813-4 0 9999 2 39444 97.5584 325.7354 0056556 258.9553 100.5297 14.82009089321974 SPROUT 1 39770U 14029E 19318.77409222 .00000405 00000-0 50792-4 0 9993 2 39770 97.8921 61.1627 0008232 323.4364 36.6260 14.87498763296992 DUCHIFAT-1 1 40021U 14033M 19318.49447044 .00000435 00000-0 50164-4 0 9998 2 40021 97.9284 243.5996 0011551 281.7155 78.2766 14.90735002293717 NANOSATCBR1 1 40024U 14033Q 19318.33169104 .00000426 00000-0 50175-4 0 9994 2 40024 97.9162 240.4659 0010894 286.8693 73.1329 14.89932582293572 EO-79 1 40025U 14033R 19318.55156185 .00000264 00000-0 34014-4 0 9998 2 40025 97.9067 237.9850 0011147 292.8528 67.1512 14.89019122293479 DTUSAT-2 1 40030U 14033W 19318.31977170 .00000294 00000-0 37585-4 0 9992 2 40030 97.8971 235.6542 0010599 289.4910 70.5161 14.88604911293369 EO-80 1 40032U 14033Y 19318.46538763 .00000291 00000-0 37307-4 0 9990 2 40032 97.8977 235.8007 0010535 289.5743 70.4336 14.88550049293376 ANTELSAT 1 40034U 14033AA 19317.67941435 .00000221 00000-0 40178-4 0 9991 2 40034 97.7383 178.4052 0058338 340.2362 19.6587 14.74162228290479 VELOX-1 1 40057U 14034E 19318.84962503 .00000250 00000-0 42458-4 0 9991 2 40057 98.2535 85.3201 0012084 113.5939 246.6547 14.77745453289791 DAURIA DX 1 1 40071U 14037C 19318.83901307 .00000112 00000-0 21856-4 0 9990 2 40071 98.4429 120.5108 0009633 105.5263 254.7017 14.81308297289334 UKUBE-1 1 40074U 14037F 19318.83508329 .00000262 00000-0 38548-4 0 9992 2 40074 98.4486 129.4061 0005825 92.4724 267.7157 14.84133270289778 HODOYOSHI-1 1 40299U 14070B 19318.87510315 .00000615 00000-0 28635-4 0 9998 2 40299 97.3397 35.4603 0011366 232.8228 192.1520 15.23513909278981 CHUBUSAT-1 1 40300U 14070C 19318.82974648 .00000637 00000-0 30602-4 0 9990 2 40300 97.3150 29.1451 0018506 251.2788 246.2557 15.22246908278703 QSAT-EOS 1 40301U 14070D 19318.87884731 .00001684 00000-0 67209-4 0 9995 2 40301 97.3167 33.0648 0024308 228.8682 242.7527 15.26308244279046 FIREBIRD FU3 1 40377U 15003B 19317.70255593 .00002416 00000-0 97603-4 0 9999 2 40377 99.1185 328.3650 0125056 317.7017 41.4619 15.19283182264397 FIREBIRD FU4 1 40378U 15003C 19318.54503386 .00002231 00000-0 90437-4 0 9992 2 40378 99.1188 329.4661 0125209 314.7604 44.3490 15.19300402264523 GRIFEX 1 40379U 15003D 19318.53663211 .00001734 00000-0 77031-4 0 9998 2 40379 99.1222 322.6111 0133943 335.8282 23.6697 15.15839360264130 NO-84 1 40654U 15025D 19317.30764725 .00014144 00000 0 18517-3 0 7735 2 40654 54.9899 218.3130 0128809 347.8101 11.9925 15.49674116135319 DEORBITSAIL 1 40719U 15032E 19318.51593815 .00000413 00000-0 65887-4 0 9997 2 40719 97.8902 207.1720 0016003 181.1939 178.9236 14.76839505234226 NUDT-PHONESAT 1 40900U 15049B 19318.85050973 .00002077 00000-0 90465-4 0 9995 2 40900 97.4368 326.7578 0013423 29.1277 48.3940 15.23269640230361 XW-2A 1 40903U 15049E 19318.58549185 .00002034 00000-0 49125-4 0 9996 2 40903 97.3202 2.0799 0012686 333.8136 181.3781 15.42313756233192 XW-2C 1 40906U 15049H 19318.86407241 .00000776 00000-0 43993-4 0 9994 2 40906 97.4721 318.5207 0016128 46.1976 38.3782 15.15822571229593 XW-2D 1 40907U 15049J 19318.82148882 .00000497 00000-0 29285-4 0 9992 2 40907 97.4698 318.1611 0015470 43.5075 34.4083 15.16021184229607 LILACSAT-2 1 40908U 15049K 19318.84436654 .00000237 00000-0 16663-4 0 9990 2 40908 97.4839 316.8351 0017301 50.9654 33.2011 15.13889718229375 XW-2E 1 40909U 15049L 19318.82469685 .00000897 00000-0 47343-4 0 9990 2 40909 97.4616 321.2563 0014689 38.5386 40.3476 15.18018315229819 XW-2F 1 40910U 15049M 19318.83883212 .00000845 00000-0 45388-4 0 9999 2 40910 97.4656 320.4111 0015902 35.9776 49.1734 15.17530177229636 XW-2B 1 40911U 15049N 19318.86245495 .00000849 00000-0 47630-4 0 9994 2 40911 97.4722 318.8767 0015287 44.8473 40.4612 15.15952956229504 DCBB 1 40912U 15049P 19318.83816773 .00001001 00000-0 49734-4 0 9993 2 40912 97.4507 324.2870 0015490 18.0960 59.6643 15.19872336229965 TW-1C 1 40926U 15051B 19318.87579421 .00015439 00000-0 20036-3 0 9994 2 40926 97.1178 4.9877 0007952 163.0263 284.4093 15.58884667233371 TW-1A 1 40928U 15051D 19318.83317355 .00002652 00000-0 65123-4 0 9998 2 40928 97.1325 346.7924 0009095 248.3391 197.7953 15.41516467232143 IO-86 1 40931U 15052B 19308.14990593 .00000506 00000-0 -18695-4 0 9996 2 40931 5.9899 149.2330 0013523 313.9745 46.0045 14.76617760221769 LQSat 1 40958U 15057A 19318.79670950 .00000026 00000-0 11609-4 0 9998 2 40958 97.8831 23.8397 0019413 120.8656 239.4465 14.73096085220754 AO-85 1 40967U 15058D 19317.63787769 .00000234 00000 0 44844-4 0 8680 2 40967 64.7755 69.1238 0182190 153.8379 207.2064 14.76025653129572 ATHENOXAT-1 1 41168U 15077C 19317.90055862 .00001953 00000-0 67618-4 0 9996 2 41168 14.9872 209.7193 0011391 354.4595 5.5599 15.13910422216475 ChubuSat-2 1 41338U 16012B 19318.26841839 .00000331 00000-0 19044-4 0 9991 2 41338 31.0034 280.5138 0013769 135.4202 224.7543 15.00208091205248 ChubuSat-3 1 41339U 16012C 19318.28723071 .00000282 00000-0 15120-4 0 9997 2 41339 31.0115 278.2947 0013528 142.7050 217.4527 15.00379166205249 Horyu-4 1 41340U 16012D 19318.23603060 .00000474 00000-0 29159-4 0 9999 2 41340 31.0050 268.5828 0014037 163.4045 196.7052 15.01356997205351 OUFTI-1 1 41458U 16025C 19317.82446090 .00002998 00000-0 15474-3 0 9992 2 41458 98.1005 52.2095 0164873 218.5881 140.3469 15.06174890194868 e-st@r-II 1 41459U 16025D 19318.80751677 .00002996 00000-0 15536-3 0 9999 2 41459 98.1011 52.8152 0166637 216.8130 142.1550 15.05801971194984 AAUSAT4 1 41460U 16025E 19318.79059614 .00003124 00000-0 15825-3 0 9996 2 41460 98.0982 54.4333 0155996 207.9425 151.3358 15.07830866195138 LO-87 1 41557U 16033B 19318.82911196 .00001267 00000-0 49694-4 0 9996 2 41557 97.4138 45.4502 0015053 127.1240 233.1377 15.27527706192850 NuSat2 1 41558U 16033C 19318.48108689 .00001567 00000-0 57427-4 0 9990 2 41558 97.4173 46.6404 0014084 127.4276 232.8248 15.29451463192872 Lapan A3 1 41603U 16040E 19318.84973277 .00000049 00000-0 54195-5 0 9996 2 41603 97.3424 13.7291 0012064 233.3482 240.0093 15.19763835188391 Swayam 1 41607U 16040J 19317.84608634 .00001527 00000-0 66539-4 0 9997 2 41607 097.3487 017.0179 0012136 224.9480 135.0776 15.23647471188438 Pratham 1 41783U 16059A 19318.14941649 .00000065 00000-0 21972-4 0 9990 2 41783 98.0496 14.3112 0032244 277.3213 82.4325 14.63020106167251 AlSat 1N 1 41789U 16059G 19318.62625410 .00000103 00000-0 28485-4 0 9993 2 41789 98.0529 17.1022 0026840 264.1266 95.6892 14.64275647167441 ScatSat 1 41790U 16059H 19318.81903820 .00000019 00000-0 15620-4 0 9993 2 41790 98.1922 0.1743 0004495 215.8969 144.1926 14.50893903165956 TY-1 1 41844U 16066D 19318.84195642 .00000825 00000-0 36410-4 0 9994 2 41844 97.4053 324.4745 0015993 29.1695 70.8545 15.24491521167411 Pegasus-1 1 41846U 16066F 19317.71010428 .00000253 00000-0 48140-4 0 9997 2 41846 98.6945 0.1475 0367859 158.1543 203.5799 14.37647902157829 CAS-2T 1 41847U 16066G 19318.16499062 .00000033 00000-0 14998-4 0 9993 2 41847 98.6879 1.1292 0366432 152.9984 209.0800 14.38018952158330 EO-88 1 42017U 17008BX 19318.77577462 .00001505 00000-0 61540-4 0 9998 2 42017 97.3876 24.2304 0006513 19.0234 341.1247 15.25890952152652 nSIGHT1 1 42726U 98067MF 19318.43853658 .00044954 00000-0 25145-3 0 9991 2 42726 51.6330 264.4901 0005203 59.2646 300.8867 15.78867103141250 CAS-4B 1 42759U 17034B 19318.80625929 .00000190 00000-0 25091-4 0 9996 2 42759 43.0175 131.7563 0010163 111.6197 338.1620 15.09680754133377 CAS-4A 1 42761U 17034D 19318.89914454 .00000075 00000-0 18052-4 0 9993 2 42761 43.0177 130.6827 0010678 112.4385 5.0318 15.09757825133381 UCLSat 1 42765U 17036A 19318.10278025 .00001261 00000-0 56432-4 0 9992 2 42765 97.3332 12.8121 0012992 71.2149 289.0496 15.23032094133054 NIUSat 1 42766U 17036B 19317.70565155 .00000912 00000-0 43625-4 0 9993 2 42766 97.3328 10.4738 0017061 64.3802 295.9194 15.21337759132738 LituanicaSAT 2 1 42768U 17036D 19318.13442006 .00001995 00000-0 86843-4 0 9993 2 42768 97.3374 12.5485 0016331 61.8166 298.4719 15.23268076132904 Aalto 1 1 42775U 17036L 19317.84299638 .00000769 00000-0 37087-4 0 9993 2 42775 097.3312 010.9530 0015428 063.9395 296.3427 15.21527463132730 URSA MAIOR 1 42776U 17036M 19318.11896184 .00000840 00000-0 40045-4 0 9992 2 42776 97.3322 11.4200 0015230 63.0389 297.2401 15.21678145132788 Max Valier Sat 1 42778U 17036P 19318.10171456 .00000944 00000-0 43957-4 0 9991 2 42778 97.3368 12.3672 0013798 67.0050 293.2641 15.22245347132810 Pegasus 1 42784U 17036V 19317.82360407 .00001102 00000-0 50069-4 0 9991 2 42784 97.3336 12.3104 0013585 72.6412 287.6309 15.22761449132803 NUDATSat 1 42787U 17036Y 19317.91971848 .00001537 00000-0 66490-4 0 9998 2 42787 097.3368 013.3464 0013190 067.2353 293.0275 15.23855807132713 SUCHAI 1 1 42788U 17036Z 19318.11686902 .00001350 00000-0 59861-4 0 9993 2 42788 97.3341 13.0017 0013096 70.8513 289.4140 15.23226305132949 SKCUBE 1 42789U 17036AA 19317.81472135 .00001208 00000-0 54078-4 0 9998 2 42789 097.3337 012.6179 0013007 072.0770 288.1884 15.23104324132813 VZLUSAT 1 1 42790U 17036AB 19317.84143180 .00001661 00000-0 71688-4 0 9997 2 42790 097.3357 013.2658 0012513 070.9045 289.3546 15.23845196132850 VENTA 1 1 42791U 17036AC 19317.72218851 .00001174 00000-0 52611-4 0 9997 2 42791 097.3337 012.5777 0012659 072.7081 287.5540 15.23108164132798 Robusta 1B 1 42792U 17036AD 19318.25436858 .00001274 00000-0 56551-4 0 9994 2 42792 97.3338 13.2344 0012567 71.2794 288.9806 15.23284269132905 D-SAT 1 42794U 17036AF 19318.10981807 .00000342 00000-0 35010-4 0 9991 2 42794 97.5222 356.1444 0126573 7.5998 352.7100 14.91167162130453 TechnoSat 1 42829U 17042E 19318.79944809 .00000061 00000-0 11493-4 0 9990 2 42829 97.5442 205.3140 0012751 285.7176 74.2636 14.91022342127157 QIKCOM-1 1 42983U 98067NF 19318.58491680 .00003908 00000-0 54006-4 0 9998 2 42983 51.6395 312.2531 0003750 335.8144 24.2672 15.59827587116577 AO-91 1 43017U 17073E 19318.81601853 .00000881 00000-0 73536-4 0 9992 2 43017 97.7229 234.3376 0258650 33.0554 328.6529 14.78692459107296 EcAMSat 1 43019U 98067NG 19318.48827701 .00007168 00000-0 83305-4 0 9991 2 43019 51.6404 304.9149 0003777 319.7985 40.2729 15.62957324198988 PICSAT 1 43132U 18004X 19317.72723347 .00001302 00000-0 56848-4 0 9993 2 43132 97.4737 25.1557 0011334 95.0717 265.1814 15.23886395102042 AO-92 1 43137U 18004AC 19317.73217739 .00001006 00000-0 44859-4 0 9992 2 43137 97.4727 25.0949 0010903 96.6280 263.6199 15.23708351102036 TianYi 2 1 43155U 18008A 19318.86143098 .00000982 00000-0 61881-4 0 9993 2 43155 97.4742 28.1706 0018086 166.1181 305.7081 15.11331249100357 Zhou Enlai 1 43156U 18008B 19318.89114844 .00000892 00000-0 57339-4 0 9997 2 43156 97.4782 28.0726 0015007 163.4543 310.3161 15.10842491100328 TianYi 6 1 43158U 18008D 19318.77941145 .00000393 00000-0 27718-4 0 9992 2 43158 97.4739 27.2835 0013833 162.0759 315.8509 15.10409994100269 S-Net G 1 43186U 18014G 19318.04678347 -.00000023 00000-0 30398-5 0 9991 2 43186 97.7015 224.2620 0009711 224.1778 135.8669 14.96710973 97326 S-Net H 1 43187U 18014H 19318.44772819 -.00000067 00000-0 -79478-6 0 9997 2 43187 97.7013 224.6413 0009726 222.8277 137.2188 14.96711136 97384 S-Net J 1 43188U 18014J 19318.44755749 -.00000057 00000-0 12118-6 0 9997 2 43188 97.7016 224.6629 0009748 222.7294 137.3171 14.96710851 97385 S-Net K 1 43189U 18014K 19318.04678209 -.00000025 00000-0 29171-5 0 9990 2 43189 97.7012 224.2432 0009693 224.1045 135.9404 14.96710396 95878 FMN 1 1 43192U 18015A 19318.87914095 .00002437 00000-0 10088-3 0 9995 2 43192 97.4180 84.9553 0017279 125.7240 351.5754 15.24769329 99041 Shaonian Xing 1 43199U 18015H 19318.91081756 .00001753 00000-0 72530-4 0 9997 2 43199 97.3974 83.7893 0018215 136.0975 341.5077 15.25152832 99103 1KUNS-PF 1 43466U 98067NP 19318.39739972 .00036094 00000-0 26532-3 0 9997 2 43466 51.6349 296.6298 0002584 56.9710 303.1536 15.72725818 86261 UBAKUSAT 1 43467U 98067NQ 19318.38855964 .00017615 00000-0 17085-3 0 9998 2 43467 51.6360 305.6099 0000996 333.1125 26.9819 15.66446894 86159 Irazu 1 43468U 98067NR 19318.37200377 .00066809 00000-0 36066-3 0 9999 2 43468 51.6363 288.8788 0003496 76.6900 283.4491 15.79497430186353 EnduroSat One 1 43551U 98067NZ 19318.17138009 .00023392 00000-0 21538-3 0 9990 2 43551 51.6359 308.6597 0005680 6.9419 353.1655 15.67519653 76329 EQUISat 1 43552U 98067PA 19318.17595893 .00016847 00000-0 17111-3 0 9998 2 43552 51.6378 311.7395 0005921 0.4910 359.6090 15.65311538 76240 UiTMSat 1 1 43589U 98067PD 19317.44842025 .00018489 00000-0 18295-3 0 9997 2 43589 51.6347 315.7859 0005577 7.5843 352.5236 15.65894269 71869 Maya 1 1 43590U 98067PE 19318.20775911 .00019777 00000-0 19492-3 0 9994 2 43590 51.6353 311.8636 0005873 11.2357 348.8768 15.65939213 71912 Bhutan 1 1 43591U 98067PF 19318.19276612 .00019803 00000-0 19468-3 0 9990 2 43591 51.6360 311.8008 0005814 10.8284 349.2836 15.66003502 71918 SiriusSat 1 1 43595U 98067PG 19318.58563472 .00017708 00000-0 18244-3 0 9993 2 43595 51.6351 312.1401 0002947 345.8589 14.2324 15.64918544 71129 SiriusSat 2 1 43596U 98067PH 19317.54590112 .00016774 00000-0 17452-3 0 9992 2 43596 51.6361 317.9995 0003373 337.0562 23.0282 15.64714825 70957 Tanusha-3 1 43597U 98067PJ 19317.60687411 .00025349 00000-0 23244-3 0 9993 2 43597 51.6339 313.8102 0003552 2.4510 357.6503 15.67579227 71011 SurfSat 1 43614U 18070B 19318.55043262 .00003025 00000-0 80303-4 0 9991 2 43614 93.0383 65.1968 0018422 91.7433 268.5931 15.38183018 65288 CP-7 DAVE 1 43615U 18070C 19318.30471803 .00002994 00000-0 79733-4 0 9990 2 43615 93.0387 65.0933 0018539 92.0027 268.3350 15.38080625 65245 ELFIN-B 1 43616U 18070D 19317.91657514 .00004234 00000-0 10938-3 0 9992 2 43616 93.0348 64.8388 0019156 96.1810 264.1627 15.38979162 65205 ELFIN-A 1 43617U 18070E 19317.90466048 .00004436 00000-0 11431-3 0 9995 2 43617 93.0403 65.1652 0018360 93.4121 266.9234 15.39070578 65205 STARS-Me Mother 1 43640U 98067PQ 19317.64313913 .00010332 00000-0 12727-3 0 9999 2 43640 051.6369 323.8958 0004395 304.5086 055.5492 15.60853259062815 CubeBel 1 1 43666U 18083E 19318.57290538 .00000852 00000-0 45389-4 0 9994 2 43666 97.5099 341.9775 0016029 36.6140 125.9275 15.17826343 57867 Changshagaoxin 1 43669U 18083H 19318.80334359 .00000689 00000-0 38273-4 0 9995 2 43669 97.4963 341.0567 0011649 30.9452 329.2465 15.16972054 57832 Ten-Koh 1 43677U 18084G 19318.48718258 .00000132 00000-0 19486-4 0 9991 2 43677 97.8657 71.3721 0016874 147.1180 213.1091 14.90214985 56775 PO-101 1 43678U 18084H 19318.86955225 -.00000292 00000-0 -23425-4 0 9998 2 43678 97.8656 72.5996 0010047 161.7614 198.3985 14.91581119 56887 IRVINE 01 1 43693U 18088D 19318.17541584 .00002532 00000-0 10891-3 0 9991 2 43693 85.0387 220.0297 0019002 14.2055 345.9717 15.21935392 55948 QO-100 1 43700U 18090A 19318.39077019 .00000158 00000-0 00000 0 0 9993 2 43700 0.0083 313.9095 0001866 309.3666 316.3744 1.00272140 3784 Reaktor Hello World 1 43743U 18096AA 19318.88028675 .00001315 00000-0 52391-4 0 9995 2 43743 97.4466 28.6225 0018489 164.6283 321.7354 15.26910868 53496 MinXSS-2 1 43758U 18099A 19318.16205323 .00000535 00000-0 53413-4 0 9991 2 43758 97.7321 28.3584 0015507 186.3319 173.7709 14.95508202 51621 AO-95 1 43770U 18099N 19318.77802250 -.00000066 00000-0 -76385-6 0 9990 2 43770 97.7318 28.6352 0014346 191.4248 168.6649 14.94850942 51698 RANGE-B 1 43772U 18099Q 19318.15279520 .00000870 00000-0 84768-4 0 9995 2 43772 97.7378 28.3014 0014310 180.2729 179.8486 14.94988707 51592 RANGE-A 1 43773U 18099R 19318.43345068 .00000104 00000-0 14796-4 0 9992 2 43773 97.7266 28.0915 0013591 179.1227 181.0020 14.94865820 51630 MOVE-II 1 43780U 18099Y 19318.17876025 .00000118 00000-0 15942-4 0 9992 2 43780 97.7312 28.1352 0013419 191.1034 168.9892 14.95188355 51593 SNUSat 2 1 43782U 18099AA 19318.17628305 -.00000072 00000-0 -13572-5 0 9999 2 43782 97.7315 28.1756 0012775 179.6107 180.5126 14.95128306 51604 SnugLite 1 43784U 18099AC 19318.42569184 .00000561 00000-0 56185-4 0 9995 2 43784 97.7281 28.3101 0014986 187.2615 172.8391 14.95217380 51653 ITASat 1 1 43786U 18099AE 19318.42373599 .00000592 00000-0 58990-4 0 9990 2 43786 97.7334 28.5492 0015114 186.2904 173.8129 14.95210538 51651 EAGLET 1 1 43790U 18099AJ 19317.66750473 .00000361 00000-0 37726-4 0 9998 2 43790 97.7321 27.9618 0013288 193.5472 166.5394 14.95581515 51240 ESEO 1 43792U 18099AL 19318.20220541 .00000255 00000-0 28151-4 0 9993 2 43792 97.7298 28.4053 0013154 188.4411 171.6591 14.95541272 51389 CSIM 1 43793U 18099AM 19318.16617293 .00000519 00000-0 51625-4 0 9998 2 43793 97.7278 28.2691 0013076 185.7638 174.3434 14.95831692 51359 Astrocast 0.1 1 43798U 18099AS 19317.81662861 .00000647 00000-0 63157-4 0 9990 2 43798 97.7313 28.1694 0012766 172.0466 188.0959 14.95778882 51567 JO-97 1 43803U 18099AX 19318.79627388 .00000304 00000-0 32731-4 0 9994 2 43803 97.7288 28.7929 0015174 186.2386 173.8648 14.95355517 51705 Suomi 100 1 43804U 18099AY 19317.72532829 .00000122 00000-0 16284-4 0 9995 2 43804 97.7289 27.7326 0015118 190.0438 170.0483 14.95350683 51554 Al Farabi 2 1 43805U 18099AZ 19318.78479058 .00000065 00000-0 11137-4 0 9995 2 43805 97.7293 28.8115 0015209 186.6831 173.4190 14.95432366 51716 PWSat 2 1 43814U 18099BJ 19318.51950807 .00018825 00000-0 13727-2 0 9990 2 43814 97.7754 31.6111 0012923 181.1151 179.0053 15.03703490 51181 CHOMPTT 1 43855U 18104G 19318.50283869 .00001123 00000-0 46333-4 0 9992 2 43855 85.0352 318.0462 0019287 121.2671 239.0463 15.22596546 50660 ISAT 1 43879U 18111D 19318.81290602 .00000549 00000-0 53965-4 0 9993 2 43879 97.7090 224.5813 0011907 243.1766 116.8238 14.96079688 46239 UWE-4 1 43880U 18111E 19318.22561133 .00000656 00000-0 63074-4 0 9991 2 43880 97.7087 224.1624 0010965 245.9488 114.0561 14.96320634 46157 Sparrow 1 43881U 18111F 19318.21565009 .00000594 00000-0 57585-4 0 9998 2 43881 97.7105 224.1931 0011142 244.5450 115.4619 14.96367268 46155 Lume 1 1 43908U 18111AJ 19318.14632702 .00001070 00000-0 45985-4 0 9996 2 43908 97.2786 219.2639 0021248 182.9769 177.1346 15.24599428 49063 FO-98 1 43933U 19003B 19318.82609486 .00000682 00000-0 32942-4 0 9990 2 43933 97.2639 11.4421 0016263 282.6186 187.5650 15.21813063 45735 FO-99 1 43937U 19003F 19318.84247764 .00001218 00000-0 53033-4 0 9993 2 43937 97.2591 12.1235 0022676 265.5620 214.6139 15.23875450 45795 Delphini 1 1 44030U 98067PW 19317.47348870 .00012527 00000-0 16088-3 0 9996 2 44030 51.6367 330.2738 0004859 353.6428 6.4503 15.59513846 44580 MYSat 1 1 44045U 18092F 19318.20344991 .00002907 00000-0 93663-4 0 9990 2 44045 51.6460 11.4064 0011006 259.0219 100.9525 15.35575132 42053 AstroCast 0.2 1 44083U 19018F 19317.91923857 .00000548 00000-0 27417-4 0 9995 2 44083 97.4514 16.5977 0013280 203.9405 156.1215 15.21515415 34450 AISTechSat 3 1 44103U 19018AB 19318.87077475 .00000843 00000-0 39016-4 0 9996 2 44103 97.4400 17.5913 0012413 218.9586 257.9713 15.22829485 34629 AISat 1 1 44104U 19018AC 19318.73022440 .00000893 00000-0 31438-4 0 9999 2 44104 97.4926 21.7471 0057112 258.1211 101.3622 15.30688537 34806 Raavana-1 1 44329U 98067QE 19318.44261773 .00008463 00000-0 13565-3 0 9992 2 44329 51.6406 333.7789 0006184 282.0408 77.9889 15.53973445 23378 Uguisu 1 44330U 98067QF 19317.48184653 .00008314 00000-0 13370-3 0 9997 2 44330 51.6406 338.6113 0006136 276.5168 83.5124 15.53908547 23201 NepaliSat-1 1 44331U 98067QG 19318.24635520 .00008355 00000-0 13387-3 0 9990 2 44331 51.6407 334.7188 0006241 282.6173 77.4120 15.54003571 23339 Prox-1 1 44339U 19036A 19318.52509639 .00000876 00000-0 15916-3 0 9999 2 44339 24.0015 30.2669 0010745 313.1609 46.7983 14.52734879 20697 OBJECT H 1 44346U 19036H 19318.40096278 .00012135 00000-0 18938-3 0 9992 2 44346 28.5233 356.7302 0382901 168.9925 191.9321 14.98313302 21312 OBJECT J 1 44347U 19036J 19318.41121592 .00031194 00000-0 47589-3 0 9992 2 44347 28.5262 352.9788 0359975 174.8453 185.5980 15.03775871 21352 OBJECT K 1 44348U 19036K 19317.43208311 .00009605 00000-0 14684-3 0 9991 2 44348 28.5178 2.4410 0383447 159.3981 202.2519 14.98470399 21178 Armadillo 1 44352U 19036P 19317.45088623 .00012932 00000-0 20166-3 0 9999 2 44352 28.5303 1.7777 0377681 160.2815 201.2810 14.99427409 21124 NO-104 1 44354U 19036R 19317.49503046 .00010064 00000-0 15214-3 0 9998 2 44354 28.5323 1.1083 0380866 160.9466 200.5802 14.99265470 21176 NO-103 1 44355U 19036S 19318.42036598 .00017145 00000-0 25965-3 0 9997 2 44355 28.5331 354.0100 0373548 172.5210 188.1149 15.01021572 21320 Oculus-ASR 1 44356U 19036T 19318.40687032 .00043228 00000-0 59832-3 0 9992 2 44356 28.5217 349.9037 0355460 179.0978 181.0306 15.06802888 21376 CP9 1 44360U 19036X 19317.44062790 .00027324 00000-0 37073-3 0 9990 2 44360 28.5141 357.4961 0371143 167.0783 193.9621 15.03982285 21081 Move-IIb 1 44398U 19038N 19318.42242271 .00001221 00000-0 74696-4 0 9997 2 44398 97.5073 277.8854 0026174 148.4125 211.8683 15.11839995 19939 SONATE 1 44400U 19038Q 19318.82034309 .00000397 00000-0 26912-4 0 9997 2 44400 97.5092 278.2907 0026197 145.4640 214.8299 15.11738389 19999 BeeSat 9 1 44412U 19038AC 19318.40987010 .00000749 00000-0 47240-4 0 9998 2 44412 97.5086 277.9120 0023566 152.0292 208.2210 15.11935071 19629 JAISAT-1 1 44419U 19038F 19318.10222220 .00000800 00000-0 49526-4 0 9994 2 44419 97.5087 277.7107 0022415 152.5279 207.7142 15.12422310 19897 LightSail-2 1 44420U 19036AC 19318.49907583 .00005949 00000-0 13430-2 0 9990 2 44420 24.0079 30.1266 0017723 314.8241 45.0814 14.53648913 18835 Taurus 1 1 44530U 19059C 19318.81398855 .00000612 00000-0 18705-3 0 9992 2 44530 98.5831 32.7574 0015749 86.5431 273.7580 14.45272404 9197 /EX